Weather History for KLBF - September, 2012

Change the Weather History Date:

Tuesday, September 4, 2012

  Actual Average Record
Temperature  
Mean Temperature 73 °F 67 °F  
Max Temperature 100 °F 83 °F 101 °F (1946)
Min Temperature 46 °F 52 °F 36 °F (1974)
Degree Days  
Heating Degree Days 0 2  
Month to date heating degree days 0 8  
Since 1 July heating degree days 11 28  
Cooling Degree Days 8 4  
Month to date cooling degree days 44 19  
Year to date cooling degree days 1209 714  
Growing Degree Days 23 (Base 50)    
Moisture  
Dew Point 45 °F    
Average Humidity 49    
Maximum Humidity 86    
Minimum Humidity 11    
Precipitation  
Precipitation 0.00 in 0.05 in 2.49 in (1938)
Month to date precipitation 0.00 0.19  
Year to date precipitation 9.24 16.41  
Snow  
Snow 0.00 in 0.00 in 0.00 in (2002)
Month to date snowfall 0.0 0.0  
Since 1 July snowfall 0.0 0.0  
Since 1 September snowfall 0.0 0.0  
Snow Depth 0.00 in    
Sea Level Pressure  
Sea Level Pressure 29.83 in    
Wind  
Wind Speed 4 mph (West)    
Max Wind Speed 17 mph    
Max Gust Speed 22 mph    
Visibility 10 miles    
Events      
T = Trace of Precipitation, MM = Missing Value Source: NWS Daily Summary

Daily Weather History Graph

Daily Weather History Graph

Search for Another Location

Airport or City:

Trip Planner

Search our weather history database for the weather conditions in past years. The results will help you decide how hot, cold, wet, or windy it might be!

Date:

Astronomy

Sep. 04, 2012 Rise Set
Actual Time 7:12 AM CDT 8:09 PM CDT
Civil Twilight 6:44 AM CDT 8:37 PM CDT
Nautical Twilight 6:11 AM CDT 9:10 PM CDT
Astronomical Twilight 5:36 AM CDT 9:45 PM CDT
Moon 10:00 PM CDT (9/4) 11:24 AM CDT (9/4)
Length of Visible Light 13h 52m
Length of Day
12h 56m
Waning Gibbous, 83% of the Moon is Illuminated
Sep 4
Waning Gibbous
Sep 8
Last Quarter
Sep 15
New
Sep 22
First Quarter
Sep 29
Full

Hourly Weather History & Observations

Time (CDT) Temp. Dew Point Humidity Pressure Visibility Wind Dir Wind Speed Gust Speed Precip Events Conditions
12:53 AM 57.9 °F 50.0 °F 75% 29.88 in 10.0 mi NW 4.6 mph - N/A   Clear
1:53 AM 55.0 °F 48.9 °F 80% 29.88 in 10.0 mi Calm Calm - N/A   Clear
2:53 AM 54.0 °F 48.0 °F 80% 29.88 in 10.0 mi WNW 3.5 mph - N/A   Clear
3:53 AM 52.0 °F 46.9 °F 83% 29.88 in 10.0 mi Calm Calm - N/A   Clear
4:53 AM 51.1 °F 43.0 °F 74% 29.86 in 10.0 mi WNW 3.5 mph - N/A   Clear
5:53 AM 50.0 °F 43.0 °F 77% 29.87 in 10.0 mi Calm Calm - N/A   Clear
6:53 AM 46.9 °F 42.1 °F 83% 29.91 in 10.0 mi NW 4.6 mph - N/A   Clear
7:53 AM 52.0 °F 45.0 °F 77% 29.91 in 10.0 mi Calm Calm - N/A   Clear
8:53 AM 60.1 °F 45.0 °F 57% 29.92 in 10.0 mi Calm Calm - N/A   Clear
9:53 AM 68.0 °F 46.0 °F 45% 29.89 in 10.0 mi Calm Calm - N/A   Clear
10:53 AM 75.0 °F 46.0 °F 36% 29.89 in 10.0 mi Calm Calm - N/A   Clear
11:53 AM 82.0 °F 45.0 °F 27% 29.85 in 10.0 mi South 3.5 mph - N/A   Clear
12:53 PM 91.0 °F 44.1 °F 20% 29.82 in 10.0 mi SW 8.1 mph - N/A   Clear
1:53 PM 93.0 °F 44.1 °F 18% 29.79 in 10.0 mi West 6.9 mph - N/A   Clear
2:53 PM 98.1 °F 39.9 °F 13% 29.76 in 10.0 mi SW 6.9 mph 17.3 mph N/A   Clear
3:53 PM 99.0 °F 39.0 °F 13% 29.74 in 10.0 mi West 11.5 mph - N/A   Clear
4:53 PM 98.6 °F 35.6 °F 11% 29.81 in 10.0 mi West 12.7 mph - N/A   Clear
5:53 PM 98.1 °F 37.9 °F 12% 29.73 in 10.0 mi West 13.8 mph 19.6 mph N/A   Clear
6:53 PM 91.9 °F 46.0 °F 21% 29.73 in 10.0 mi West 6.9 mph - N/A   Clear
7:53 PM 82.0 °F 48.0 °F 30% 29.74 in 10.0 mi WNW 3.5 mph - N/A   Clear
8:53 PM 75.0 °F 45.0 °F 34% 29.75 in 10.0 mi Calm Calm - N/A   Clear
9:53 PM 62.6 °F 48.2 °F 59% 29.83 in 10.0 mi Calm Calm - N/A   Clear
10:53 PM 57.9 °F 46.0 °F 65% 29.78 in 10.0 mi Calm Calm - N/A   Clear
11:53 PM 57.0 °F 44.1 °F 62% 29.81 in 10.0 mi WNW 3.5 mph - N/A   Clear